Time,TemperatureF,DewpointF,PressureIn,WindDirection,WindDirectionDegrees,WindSpeedMPH,WindSpeedGustMPH,Humidity,HourlyPrecipIn,Conditions,Clouds,dailyrainin,SoftwareType,DateUTC
2013-02-06 00:22:00,46.0,32.0,29.98,NW,316,0.0,-999.0,59,-99.99,,,-99.99,,2013-02-06 05:22:00,
2013-02-06 00:32:00,46.0,33.0,29.98,West,275,0.0,-999.0,61,-99.99,,,-99.99,,2013-02-06 05:32:00,
2013-02-06 00:53:00,46.0,34.0,29.99,WSW,254,0.0,-999.0,62,-99.99,,,-99.99,,2013-02-06 05:53:00,
2013-02-06 01:22:00,43.0,32.0,30.00,WSW,254,0.0,-999.0,66,-99.99,,,-99.99,,2013-02-06 06:22:00,
2013-02-06 01:32:00,43.0,32.0,30.00,WSW,254,0.0,-999.0,66,-99.99,,,-99.99,,2013-02-06 06:32:00,
2013-02-06 01:42:00,43.0,32.0,30.00,WSW,254,0.0,-999.0,66,-99.99,,,-99.99,,2013-02-06 06:42:00,
2013-02-06 01:51:00,42.0,33.0,30.00,WNW,291,0.0,-999.0,69,-99.99,,,-99.99,,2013-02-06 06:51:00,
2013-02-06 02:02:00,42.0,33.0,29.99,WNW,291,0.0,-999.0,70,-99.99,,,-99.99,,2013-02-06 07:02:00,
2013-02-06 02:11:00,42.0,33.0,29.99,WNW,291,0.0,-999.0,70,-99.99,,,-99.99,,2013-02-06 07:11:00,
2013-02-06 02:22:00,42.0,33.0,29.99,WNW,291,0.0,-999.0,69,-99.99,,,-99.99,,2013-02-06 07:22:00,
2013-02-06 02:32:00,44.0,33.0,30.00,NW,323,0.0,-999.0,66,-99.99,,,-99.99,,2013-02-06 07:32:00,
2013-02-06 02:51:00,46.0,35.0,30.00,WNW,296,0.0,-999.0,64,-99.99,,,-99.99,,2013-02-06 07:51:00,
2013-02-06 03:01:00,46.0,34.0,30.00,NW,314,0.0,-999.0,63,-99.99,,,-99.99,,2013-02-06 08:01:00,
2013-02-06 03:21:00,45.0,34.0,30.00,NNW,327,0.0,-999.0,64,-99.99,,,-99.99,,2013-02-06 08:21:00,
2013-02-06 03:32:00,47.0,35.0,30.00,WNW,303,1.0,-999.0,62,-99.99,,,-99.99,,2013-02-06 08:32:00,
2013-02-06 03:53:00,46.0,33.0,30.01,NNW,327,0.0,-999.0,61,-99.99,,,-99.99,,2013-02-06 08:53:00,
2013-02-06 04:02:00,46.0,33.0,30.01,West,272,0.0,-999.0,61,-99.99,,,-99.99,,2013-02-06 09:02:00,
2013-02-06 04:21:00,46.0,33.0,30.01,NW,311,1.0,-999.0,61,-99.99,,,-99.99,,2013-02-06 09:21:00,
2013-02-06 04:32:00,45.0,33.0,30.02,East,90,0.0,-999.0,63,-99.99,,,-99.99,,2013-02-06 09:32:00,
2013-02-06 04:52:00,45.0,34.0,30.03,NW,316,0.0,-999.0,64,-99.99,,,-99.99,,2013-02-06 09:52:00,
2013-02-06 05:01:00,43.0,33.0,30.03,NNE,18,0.0,-999.0,68,-99.99,,,-99.99,,2013-02-06 10:01:00,
2013-02-06 05:22:00,43.0,33.0,30.04,NNW,347,1.0,-999.0,68,-99.99,,,-99.99,,2013-02-06 10:22:00,
2013-02-06 05:32:00,43.0,33.0,30.05,NW,315,1.0,-999.0,67,-99.99,,,-99.99,,2013-02-06 10:32:00,
2013-02-06 05:52:00,43.0,33.0,30.06,North,350,0.0,-999.0,68,-99.99,,,-99.99,,2013-02-06 10:52:00,
2013-02-06 06:01:00,43.0,33.0,30.06,North,5,1.0,-999.0,67,-99.99,,,-99.99,,2013-02-06 11:01:00,
2013-02-06 06:22:00,43.0,33.0,30.07,NNW,329,0.0,-999.0,67,-99.99,,,-99.99,,2013-02-06 11:22:00,
2013-02-06 06:32:00,42.0,32.0,30.08,WNW,295,1.0,-999.0,67,-99.99,,,-99.99,,2013-02-06 11:32:00,
2013-02-06 06:52:00,42.0,31.0,30.09,WNW,294,0.0,-999.0,66,-99.99,,,-99.99,,2013-02-06 11:52:00,
2013-02-06 07:02:00,42.0,32.0,30.09,SSW,198,0.0,-999.0,68,-99.99,,,-99.99,,2013-02-06 12:02:00,
2013-02-06 07:22:00,41.0,31.0,30.10,North,9,0.0,-999.0,67,-99.99,,,-99.99,,2013-02-06 12:22:00,
2013-02-06 07:32:00,40.0,31.0,30.11,NNW,333,0.0,-999.0,69,-99.99,,,-99.99,,2013-02-06 12:32:00,
2013-02-06 07:52:00,39.0,30.0,30.12,NNW,333,0.0,-999.0,70,-99.99,,,-99.99,,2013-02-06 12:52:00,
2013-02-06 08:02:00,39.0,30.0,30.13,NW,312,0.0,-999.0,70,-99.99,,,-99.99,,2013-02-06 13:02:00,
2013-02-06 08:12:00,39.0,30.0,30.13,NW,312,0.0,-999.0,70,-99.99,,,-99.99,,2013-02-06 13:12:00,
2013-02-06 08:22:00,40.0,30.0,30.13,NNE,19,0.0,-999.0,66,-99.99,,,-99.99,,2013-02-06 13:22:00,
2013-02-06 08:32:00,41.0,30.0,30.15,WSW,238,0.0,-999.0,64,-99.99,,,-99.99,,2013-02-06 13:32:00,
2013-02-06 08:52:00,41.0,32.0,30.15,WSW,238,0.0,-999.0,69,-99.99,,,-99.99,,2013-02-06 13:52:00,
2013-02-06 09:02:00,40.0,30.0,30.16,WSW,238,0.0,-999.0,67,-99.99,,,-99.99,,2013-02-06 14:02:00,
2013-02-06 09:11:00,40.0,30.0,30.16,WSW,238,0.0,-999.0,67,-99.99,,,-99.99,,2013-02-06 14:11:00,
2013-02-06 09:22:00,42.0,29.0,30.16,WSW,248,0.0,-999.0,60,-99.99,,,-99.99,,2013-02-06 14:22:00,
2013-02-06 09:32:00,43.0,29.0,30.16,SW,230,0.0,-999.0,58,-99.99,,,-99.99,,2013-02-06 14:32:00,
2013-02-06 09:52:00,45.0,29.0,30.17,WNW,283,0.0,-999.0,54,-99.99,,,-99.99,,2013-02-06 14:52:00,
2013-02-06 10:02:00,46.0,30.0,30.17,NW,317,0.0,-999.0,54,-99.99,,,-99.99,,2013-02-06 15:02:00,
2013-02-06 10:11:00,46.0,30.0,30.17,NW,317,0.0,-999.0,54,-99.99,,,-99.99,,2013-02-06 15:11:00,
2013-02-06 10:21:00,46.0,28.0,30.17,West,260,1.0,-999.0,49,-99.99,,,-99.99,,2013-02-06 15:21:00,
2013-02-06 10:32:00,47.0,29.0,30.17,SSW,200,0.0,-999.0,49,-99.99,,,-99.99,,2013-02-06 15:32:00,
2013-02-06 10:42:00,47.0,29.0,30.17,SSW,200,0.0,-999.0,49,-99.99,,,-99.99,,2013-02-06 15:42:00,
2013-02-06 10:52:00,48.0,27.0,30.17,West,273,1.0,-999.0,44,-99.99,,,-99.99,,2013-02-06 15:52:00,
2013-02-06 11:01:00,48.0,27.0,30.17,West,273,1.0,-999.0,44,-99.99,,,-99.99,,2013-02-06 16:01:00,
2013-02-06 11:11:00,48.0,27.0,30.17,West,273,1.0,-999.0,44,-99.99,,,-99.99,,2013-02-06 16:11:00,
2013-02-06 11:21:00,50.0,28.0,30.18,NW,323,1.0,-999.0,42,-99.99,,,-99.99,,2013-02-06 16:21:00,
2013-02-06 11:32:00,51.0,28.0,30.18,WNW,292,1.0,-999.0,41,-99.99,,,-99.99,,2013-02-06 16:32:00,
2013-02-06 11:42:00,51.0,28.0,30.18,WNW,292,1.0,-999.0,41,-99.99,,,-99.99,,2013-02-06 16:42:00,
2013-02-06 11:52:00,51.0,26.0,30.18,West,263,0.0,-999.0,38,-99.99,,,-99.99,,2013-02-06 16:52:00,
2013-02-06 12:02:00,52.0,28.0,30.18,ESE,113,0.0,-999.0,39,-99.99,,,-99.99,,2013-02-06 17:02:00,
2013-02-06 12:12:00,52.0,28.0,30.18,ESE,113,0.0,-999.0,39,-99.99,,,-99.99,,2013-02-06 17:12:00,
2013-02-06 12:22:00,52.0,28.0,30.18,ESE,113,0.0,-999.0,39,-99.99,,,-99.99,,2013-02-06 17:22:00,
2013-02-06 12:42:00,53.0,26.0,30.18,WNW,302,2.0,-999.0,35,-99.99,,,-99.99,,2013-02-06 17:42:00,
2013-02-06 12:53:00,53.0,25.0,30.17,NNW,329,1.0,-999.0,33,-99.99,,,-99.99,,2013-02-06 17:53:00,
2013-02-06 13:02:00,54.0,26.0,30.17,WNW,298,0.0,-999.0,33,-99.99,,,-99.99,,2013-02-06 18:02:00,
2013-02-06 13:11:00,54.0,26.0,30.17,WNW,298,0.0,-999.0,33,-99.99,,,-99.99,,2013-02-06 18:11:00,
2013-02-06 13:23:00,54.0,26.0,30.17,WNW,298,0.0,-999.0,33,-99.99,,,-99.99,,2013-02-06 18:23:00,
2013-02-06 13:32:00,55.0,26.0,30.16,NW,325,1.0,-999.0,32,-99.99,,,-99.99,,2013-02-06 18:32:00,
2013-02-06 13:42:00,55.0,26.0,30.16,NW,325,1.0,-999.0,32,-99.99,,,-99.99,,2013-02-06 18:42:00,
2013-02-06 13:52:00,56.0,25.0,30.15,North,360,1.0,-999.0,30,-99.99,,,-99.99,,2013-02-06 18:52:00,
2013-02-06 14:02:00,56.0,24.0,30.15,SW,223,1.0,-999.0,29,-99.99,,,-99.99,,2013-02-06 19:02:00,
2013-02-06 14:11:00,56.0,24.0,30.15,SW,223,1.0,-999.0,29,-99.99,,,-99.99,,2013-02-06 19:11:00,
2013-02-06 14:21:00,56.0,23.0,30.15,NW,311,1.0,-999.0,28,-99.99,,,-99.99,,2013-02-06 19:21:00,
2013-02-06 14:32:00,58.0,21.0,30.14,West,273,1.0,-999.0,24,-99.99,,,-99.99,,2013-02-06 19:32:00,
2013-02-06 14:42:00,58.0,21.0,30.14,West,273,1.0,-999.0,24,-99.99,,,-99.99,,2013-02-06 19:42:00,
2013-02-06 14:52:00,58.0,21.0,30.14,West,273,1.0,-999.0,24,-99.99,,,-99.99,,2013-02-06 19:52:00,
2013-02-06 15:01:00,58.0,20.0,30.14,SSW,207,1.0,-999.0,23,-99.99,,,-99.99,,2013-02-06 20:01:00,
2013-02-06 15:11:00,58.0,20.0,30.14,NW,316,1.0,-999.0,23,-99.99,,,-99.99,,2013-02-06 20:11:00,
2013-02-06 15:21:00,58.0,20.0,30.14,NW,316,1.0,-999.0,23,-99.99,,,-99.99,,2013-02-06 20:21:00,
2013-02-06 15:32:00,58.0,20.0,30.14,NE,40,1.0,-999.0,23,-99.99,,,-99.99,,2013-02-06 20:32:00,
2013-02-06 15:42:00,58.0,20.0,30.14,NE,40,1.0,-999.0,23,-99.99,,,-99.99,,2013-02-06 20:42:00,
2013-02-06 15:52:00,58.0,20.0,30.14,North,5,1.0,-999.0,23,-99.99,,,-99.99,,2013-02-06 20:52:00,
2013-02-06 16:02:00,58.0,20.0,30.14,North,355,0.0,-999.0,23,-99.99,,,-99.99,,2013-02-06 21:02:00,
2013-02-06 16:11:00,58.0,20.0,30.14,North,355,0.0,-999.0,23,-99.99,,,-99.99,,2013-02-06 21:11:00,
2013-02-06 16:21:00,57.0,21.0,30.14,WSW,257,1.0,-999.0,24,-99.99,,,-99.99,,2013-02-06 21:21:00,
2013-02-06 16:32:00,57.0,20.0,30.15,NNW,329,1.0,-999.0,23,-99.99,,,-99.99,,2013-02-06 21:32:00,
2013-02-06 16:42:00,57.0,20.0,30.15,NNW,329,1.0,-999.0,23,-99.99,,,-99.99,,2013-02-06 21:42:00,
2013-02-06 16:51:00,56.0,20.0,30.15,NW,321,1.0,-999.0,24,-99.99,,,-99.99,,2013-02-06 21:51:00,
2013-02-06 17:01:00,56.0,20.0,30.15,NW,321,1.0,-999.0,24,-99.99,,,-99.99,,2013-02-06 22:01:00,
2013-02-06 17:11:00,56.0,20.0,30.15,NW,321,1.0,-999.0,24,-99.99,,,-99.99,,2013-02-06 22:11:00,
2013-02-06 17:22:00,55.0,21.0,30.16,NW,321,0.0,-999.0,26,-99.99,,,-99.99,,2013-02-06 22:22:00,
2013-02-06 17:32:00,54.0,21.0,30.16,NNW,346,0.0,-999.0,27,-99.99,,,-99.99,,2013-02-06 22:32:00,
2013-02-06 17:42:00,54.0,21.0,30.16,NNW,346,0.0,-999.0,27,-99.99,,,-99.99,,2013-02-06 22:42:00,
2013-02-06 17:52:00,53.0,21.0,30.16,NNW,346,0.0,-999.0,28,-99.99,,,-99.99,,2013-02-06 22:52:00,
2013-02-06 18:01:00,53.0,21.0,30.16,NNW,346,0.0,-999.0,28,-99.99,,,-99.99,,2013-02-06 23:01:00,
2013-02-06 18:11:00,53.0,21.0,30.16,NNW,346,0.0,-999.0,28,-99.99,,,-99.99,,2013-02-06 23:11:00,
2013-02-06 18:21:00,50.0,21.0,30.18,NNW,342,0.0,-999.0,31,-99.99,,,-99.99,,2013-02-06 23:21:00,
2013-02-06 18:32:00,49.0,20.0,30.19,NNW,342,0.0,-999.0,32,-99.99,,,-99.99,,2013-02-06 23:32:00,
2013-02-06 18:52:00,48.0,20.0,30.19,NNW,342,0.0,-999.0,32,-99.99,,,-99.99,,2013-02-06 23:52:00,
2013-02-06 19:02:00,48.0,20.0,30.19,NNW,342,0.0,-999.0,32,-99.99,,,-99.99,,2013-02-07 00:02:00,
2013-02-06 19:11:00,48.0,20.0,30.19,NNW,342,0.0,-999.0,32,-99.99,,,-99.99,,2013-02-07 00:11:00,
2013-02-06 19:22:00,48.0,20.0,30.19,NNW,342,0.0,-999.0,32,-99.99,,,-99.99,,2013-02-07 00:22:00,
2013-02-06 19:32:00,48.0,20.0,30.20,NW,321,0.0,-999.0,33,-99.99,,,-99.99,,2013-02-07 00:32:00,
2013-02-06 19:42:00,48.0,20.0,30.20,NW,321,0.0,-999.0,33,-99.99,,,-99.99,,2013-02-07 00:42:00,
2013-02-06 19:52:00,47.0,19.0,30.21,NW,321,0.0,-999.0,33,-99.99,,,-99.99,,2013-02-07 00:52:00,
2013-02-06 20:01:00,47.0,19.0,30.21,NW,321,0.0,-999.0,33,-99.99,,,-99.99,,2013-02-07 01:01:00,
2013-02-06 20:11:00,47.0,19.0,30.21,NW,321,0.0,-999.0,33,-99.99,,,-99.99,,2013-02-07 01:11:00,
2013-02-06 20:21:00,46.0,20.0,30.22,NW,321,0.0,-999.0,35,-99.99,,,-99.99,,2013-02-07 01:21:00,
2013-02-06 20:32:00,46.0,20.0,30.21,NW,321,0.0,-999.0,35,-99.99,,,-99.99,,2013-02-07 01:32:00,
2013-02-06 20:42:00,46.0,20.0,30.21,NW,321,0.0,-999.0,35,-99.99,,,-99.99,,2013-02-07 01:42:00,
2013-02-06 20:52:00,45.0,20.0,30.21,NW,321,0.0,-999.0,36,-99.99,,,-99.99,,2013-02-07 01:52:00,
2013-02-06 21:02:00,45.0,20.0,30.21,NW,321,0.0,-999.0,36,-99.99,,,-99.99,,2013-02-07 02:02:00,
2013-02-06 21:11:00,45.0,20.0,30.21,NW,321,0.0,-999.0,36,-99.99,,,-99.99,,2013-02-07 02:11:00,
2013-02-06 21:21:00,45.0,21.0,30.20,North,360,0.0,-999.0,38,-99.99,,,-99.99,,2013-02-07 02:21:00,
2013-02-06 21:32:00,45.0,22.0,30.20,NNW,334,0.0,-999.0,39,-99.99,,,-99.99,,2013-02-07 02:32:00,
2013-02-06 21:42:00,45.0,22.0,30.20,NNW,334,0.0,-999.0,39,-99.99,,,-99.99,,2013-02-07 02:42:00,
2013-02-06 21:51:00,45.0,22.0,30.20,NNW,334,0.0,-999.0,39,-99.99,,,-99.99,,2013-02-07 02:51:00,
2013-02-06 22:02:00,44.0,21.0,30.22,NNW,333,0.0,-999.0,40,-99.99,,,-99.99,,2013-02-07 03:02:00,
2013-02-06 22:11:00,44.0,21.0,30.22,NNW,333,0.0,-999.0,40,-99.99,,,-99.99,,2013-02-07 03:11:00,
2013-02-06 22:21:00,43.0,20.0,30.21,NNW,333,0.0,-999.0,40,-99.99,,,-99.99,,2013-02-07 03:21:00,
2013-02-06 22:32:00,43.0,22.0,30.23,NNW,333,0.0,-999.0,43,-99.99,,,-99.99,,2013-02-07 03:32:00,
2013-02-06 22:42:00,43.0,22.0,30.23,NNW,333,0.0,-999.0,43,-99.99,,,-99.99,,2013-02-07 03:42:00,
2013-02-06 22:52:00,42.0,22.0,30.24,NNW,333,0.0,-999.0,44,-99.99,,,-99.99,,2013-02-07 03:52:00,
2013-02-06 23:01:00,41.0,21.0,30.26,WSW,257,0.0,-999.0,45,-99.99,,,-99.99,,2013-02-07 04:01:00,
2013-02-06 23:11:00,41.0,21.0,30.26,WSW,257,0.0,-999.0,45,-99.99,,,-99.99,,2013-02-07 04:11:00,
2013-02-06 23:22:00,38.0,22.0,30.26,WNW,297,0.0,-999.0,53,-99.99,,,-99.99,,2013-02-07 04:22:00,
2013-02-06 23:32:00,40.0,22.0,30.27,WNW,297,0.0,-999.0,48,-99.99,,,-99.99,,2013-02-07 04:32:00,
2013-02-06 23:42:00,40.0,22.0,30.27,WNW,297,0.0,-999.0,48,-99.99,,,-99.99,,2013-02-07 04:42:00,
2013-02-06 23:53:00,40.0,23.0,30.26,WNW,297,0.0,-999.0,51,-99.99,,,-99.99,,2013-02-07 04:53:00,